Location: Street
(51.1247°N, 2.7429°W)
Time: 10:00:44
(UTC+01:00)

STRAND 1 - Pass Details

Date: 25 April 2024
Orbit: 766 x 777 km, 98.4° (Epoch: 29 May)

Event Time Altitude Azimuth Distance (km) Brightness Sun altitude
Rises 20:56:19 0° 8° (N) 3,252 ? -5.4°
Reaches altitude 10° 20:58:50 10° 359° (N) 2,322 ? -5.7°
Maximum altitude 21:03:17 31° 298° (WNW) 1,325 ? -6.3°
Drops below altitude 10° 21:07:44 10° 237° (WSW) 2,315 ? -6.9°
Sets 21:10:15 0° 228° (SW) 3,240 ? -7.2°
